Time,TemperatureF,DewpointF,PressureIn,WindDirection,WindDirectionDegrees,WindSpeedMPH,WindSpeedGustMPH,Humidity,HourlyPrecipIn,Conditions,Clouds,dailyrainin,SolarRadiationWatts/m^2,SoftwareType,DateUTC
2013-11-02 00:00:00,46.0,45.0,-100.00,WSW,247,6.0,-999.0,96,-99.99,,,-99.99,0.000000,,2013-11-02 04:00:00,
2013-11-02 00:44:00,46.0,45.0,-100.00,WSW,247,6.0,-999.0,96,-99.99,,,-99.99,0.000000,,2013-11-02 04:44:00,
2013-11-02 00:54:00,46.0,45.0,-100.00,WSW,247,6.0,-999.0,96,-99.99,,,-99.99,0.000000,,2013-11-02 04:54:00,
2013-11-02 01:00:00,46.0,45.0,-100.00,West,270,5.0,-999.0,97,0.01,,,-99.99,0.000000,,2013-11-02 05:00:00,
2013-11-02 01:42:00,46.0,45.0,-100.00,West,270,5.0,-999.0,97,0.01,,,-99.99,0.000000,,2013-11-02 05:42:00,
2013-11-02 01:52:00,46.0,45.0,-100.00,West,270,5.0,-999.0,97,0.01,,,-99.99,0.000000,,2013-11-02 05:52:00,
2013-11-02 02:00:00,45.0,45.0,-100.00,WNW,292,3.0,-999.0,97,0.03,,,-99.99,0.000000,,2013-11-02 06:00:00,
2013-11-02 02:43:00,45.0,45.0,-100.00,WNW,292,3.0,-999.0,97,0.03,,,-99.99,0.000000,,2013-11-02 06:43:00,
2013-11-02 02:52:00,45.0,45.0,-100.00,WNW,292,3.0,-999.0,97,0.03,,,-99.99,0.000000,,2013-11-02 06:52:00,
2013-11-02 03:00:00,45.0,44.0,-100.00,WNW,292,5.0,-999.0,97,0.02,,,-99.99,0.000000,,2013-11-02 07:00:00,
2013-11-02 03:42:00,45.0,44.0,-100.00,WNW,292,5.0,-999.0,97,0.02,,,-99.99,0.000000,,2013-11-02 07:42:00,
2013-11-02 03:52:00,45.0,44.0,-100.00,WNW,292,5.0,-999.0,97,0.02,,,-99.99,0.000000,,2013-11-02 07:52:00,
2013-11-02 04:00:00,43.0,42.0,-100.00,NW,315,6.0,-999.0,95,0.01,,,-99.99,0.000000,,2013-11-02 08:00:00,
2013-11-02 04:42:00,43.0,42.0,-100.00,NW,315,6.0,-999.0,95,0.01,,,-99.99,0.000000,,2013-11-02 08:42:00,
2013-11-02 04:52:00,43.0,42.0,-100.00,NW,315,6.0,-999.0,95,0.01,,,-99.99,0.000000,,2013-11-02 08:52:00,
2013-11-02 05:00:00,42.0,41.0,-100.00,NNW,337,6.0,-999.0,95,0.01,,,-99.99,0.000000,,2013-11-02 09:00:00,
2013-11-02 05:43:00,42.0,41.0,-100.00,NNW,337,6.0,-999.0,95,0.01,,,-99.99,0.000000,,2013-11-02 09:43:00,
2013-11-02 05:53:00,42.0,41.0,-100.00,NNW,337,6.0,-999.0,95,0.01,,,-99.99,0.000000,,2013-11-02 09:53:00,
2013-11-02 06:00:00,41.0,40.0,-100.00,NNW,337,7.0,-999.0,95,0.01,,,-99.99,0.000000,,2013-11-02 10:00:00,
2013-11-02 06:43:00,41.0,40.0,-100.00,NNW,337,7.0,-999.0,95,0.01,,,-99.99,0.000000,,2013-11-02 10:43:00,
2013-11-02 06:53:00,41.0,40.0,-100.00,NNW,337,7.0,-999.0,95,0.01,,,-99.99,0.000000,,2013-11-02 10:53:00,
2013-11-02 07:00:00,41.0,40.0,-100.00,NW,315,7.0,-999.0,94,-99.99,,,-99.99,0.000000,,2013-11-02 11:00:00,
2013-11-02 07:42:00,41.0,40.0,-100.00,NW,315,7.0,-999.0,94,-99.99,,,-99.99,0.000000,,2013-11-02 11:42:00,
2013-11-02 07:52:00,41.0,40.0,-100.00,NW,315,7.0,-999.0,94,-99.99,,,-99.99,0.000000,,2013-11-02 11:52:00,
2013-11-02 08:00:00,41.0,39.0,-100.00,NW,315,7.0,-999.0,94,-99.99,,,-99.99,0.000000,,2013-11-02 12:00:00,
2013-11-02 08:42:00,41.0,39.0,-100.00,NW,315,7.0,-999.0,94,-99.99,,,-99.99,0.000000,,2013-11-02 12:42:00,
2013-11-02 08:52:00,41.0,39.0,-100.00,NW,315,7.0,-999.0,94,-99.99,,,-99.99,0.000000,,2013-11-02 12:52:00,
2013-11-02 09:00:00,41.0,39.0,-100.00,NW,315,8.0,-999.0,93,-99.99,,,-99.99,19.719999,,2013-11-02 13:00:00,
2013-11-02 09:42:00,41.0,39.0,-100.00,NW,315,8.0,-999.0,93,-99.99,,,-99.99,19.719999,,2013-11-02 13:42:00,
2013-11-02 09:52:00,41.0,39.0,-100.00,NW,315,8.0,-999.0,93,-99.99,,,-99.99,19.719999,,2013-11-02 13:52:00,
2013-11-02 10:00:00,41.0,39.0,-100.00,NW,315,10.0,-999.0,92,-99.99,,,-99.99,62.639999,,2013-11-02 14:00:00,
2013-11-02 10:42:00,41.0,39.0,-100.00,NW,315,10.0,-999.0,92,-99.99,,,-99.99,62.639999,,2013-11-02 14:42:00,
2013-11-02 10:52:00,41.0,39.0,-100.00,NW,315,10.0,-999.0,92,-99.99,,,-99.99,62.639999,,2013-11-02 14:52:00,
2013-11-02 11:00:00,42.0,40.0,-100.00,NW,315,10.0,-999.0,93,0.03,,,-99.99,106.720001,,2013-11-02 15:00:00,
2013-11-02 11:43:00,42.0,40.0,-100.00,NW,315,10.0,-999.0,93,0.03,,,-99.99,106.720001,,2013-11-02 15:43:00,
2013-11-02 11:53:00,42.0,40.0,-100.00,NW,315,10.0,-999.0,93,0.03,,,-99.99,106.720001,,2013-11-02 15:53:00,
2013-11-02 12:00:00,43.0,40.0,-100.00,SSE,157,10.0,-999.0,91,0.01,,,-99.99,107.879997,,2013-11-02 16:00:00,
2013-11-02 12:43:00,43.0,40.0,-100.00,SSE,157,10.0,-999.0,91,0.01,,,-99.99,107.879997,,2013-11-02 16:43:00,
2013-11-02 12:54:00,43.0,40.0,-100.00,SSE,157,10.0,-999.0,91,0.01,,,-99.99,107.879997,,2013-11-02 16:54:00,
2013-11-02 13:00:00,43.0,39.0,-100.00,NNE,22,13.0,-999.0,87,-99.99,,,-99.99,156.600006,,2013-11-02 17:00:00,
2013-11-02 13:43:00,43.0,39.0,-100.00,NNE,22,13.0,-999.0,87,-99.99,,,-99.99,156.600006,,2013-11-02 17:43:00,
2013-11-02 13:53:00,43.0,39.0,-100.00,NNE,22,13.0,-999.0,87,-99.99,,,-99.99,156.600006,,2013-11-02 17:53:00,
2013-11-02 14:00:00,43.0,38.0,-100.00,NNE,22,13.0,-999.0,82,-99.99,,,-99.99,148.479996,,2013-11-02 18:00:00,
2013-11-02 14:42:00,43.0,38.0,-100.00,NNE,22,13.0,-999.0,82,-99.99,,,-99.99,148.479996,,2013-11-02 18:42:00,
2013-11-02 14:53:00,43.0,38.0,-100.00,NNE,22,13.0,-999.0,82,-99.99,,,-99.99,148.479996,,2013-11-02 18:53:00,
2013-11-02 15:00:00,43.0,39.0,-100.00,East,90,10.0,-999.0,84,-99.99,,,-99.99,161.240005,,2013-11-02 19:00:00,
2013-11-02 15:42:00,43.0,39.0,-100.00,East,90,10.0,-999.0,84,-99.99,,,-99.99,161.240005,,2013-11-02 19:42:00,
2013-11-02 15:52:00,43.0,39.0,-100.00,East,90,10.0,-999.0,84,-99.99,,,-99.99,161.240005,,2013-11-02 19:52:00,
2013-11-02 16:00:00,44.0,37.0,-100.00,NE,45,10.0,-999.0,77,-99.99,,,-99.99,178.639999,,2013-11-02 20:00:00,
2013-11-02 16:43:00,44.0,37.0,-100.00,NE,45,10.0,-999.0,77,-99.99,,,-99.99,178.639999,,2013-11-02 20:43:00,
2013-11-02 16:53:00,44.0,37.0,-100.00,NE,45,10.0,-999.0,77,-99.99,,,-99.99,178.639999,,2013-11-02 20:53:00,
2013-11-02 17:00:00,43.0,36.0,-100.00,NE,45,10.0,-999.0,77,-99.99,,,-99.99,78.879997,,2013-11-02 21:00:00,
2013-11-02 17:44:00,43.0,36.0,-100.00,NE,45,10.0,-999.0,77,-99.99,,,-99.99,78.879997,,2013-11-02 21:44:00,
2013-11-02 17:54:00,43.0,36.0,-100.00,NE,45,10.0,-999.0,77,-99.99,,,-99.99,78.879997,,2013-11-02 21:54:00,
2013-11-02 18:00:00,42.0,35.0,-100.00,NE,45,11.0,-999.0,78,-99.99,,,-99.99,40.599998,,2013-11-02 22:00:00,
2013-11-02 18:44:00,42.0,35.0,-100.00,NE,45,11.0,-999.0,78,-99.99,,,-99.99,40.599998,,2013-11-02 22:44:00,
2013-11-02 18:54:00,42.0,35.0,-100.00,NE,45,11.0,-999.0,78,-99.99,,,-99.99,40.599998,,2013-11-02 22:54:00,
2013-11-02 19:00:00,39.0,34.0,-100.00,NE,45,8.0,-999.0,80,-99.99,,,-99.99,3.480000,,2013-11-02 23:00:00,
2013-11-02 19:42:00,39.0,34.0,-100.00,NE,45,8.0,-999.0,80,-99.99,,,-99.99,3.480000,,2013-11-02 23:42:00,
2013-11-02 19:52:00,39.0,34.0,-100.00,NE,45,8.0,-999.0,80,-99.99,,,-99.99,3.480000,,2013-11-02 23:52:00,
2013-11-02 20:00:00,39.0,34.0,-100.00,NE,45,6.0,-999.0,82,-99.99,,,-99.99,0.000000,,2013-11-03 00:00:00,
2013-11-02 20:42:00,39.0,34.0,-100.00,NE,45,6.0,-999.0,82,-99.99,,,-99.99,0.000000,,2013-11-03 00:42:00,
2013-11-02 20:52:00,39.0,34.0,-100.00,NE,45,6.0,-999.0,82,-99.99,,,-99.99,0.000000,,2013-11-03 00:52:00,
2013-11-02 21:00:00,40.0,34.0,-100.00,NE,45,8.0,-999.0,80,-99.99,,,-99.99,0.000000,,2013-11-03 01:00:00,
2013-11-02 21:42:00,40.0,34.0,-100.00,NE,45,8.0,-999.0,80,-99.99,,,-99.99,0.000000,,2013-11-03 01:42:00,
2013-11-02 21:52:00,40.0,34.0,-100.00,NE,45,8.0,-999.0,80,-99.99,,,-99.99,0.000000,,2013-11-03 01:52:00,
2013-11-02 22:00:00,38.0,33.0,-100.00,East,90,7.0,-999.0,81,-99.99,,,-99.99,0.000000,,2013-11-03 02:00:00,
2013-11-02 22:43:00,38.0,33.0,-100.00,East,90,7.0,-999.0,81,-99.99,,,-99.99,0.000000,,2013-11-03 02:43:00,
2013-11-02 22:52:00,38.0,33.0,-100.00,East,90,7.0,-999.0,81,-99.99,,,-99.99,0.000000,,2013-11-03 02:52:00,
2013-11-02 23:00:00,-999.0,-99.9,-100.00,East,90,7.0,-999.0,-999,-99.99,,,-99.99,,,2013-11-03 03:00:00,
2013-11-02 23:45:00,37.0,32.0,-100.00,East,90,7.0,-999.0,83,-99.99,,,-99.99,0.000000,,2013-11-03 03:45:00,
2013-11-02 23:54:00,37.0,32.0,-100.00,East,90,7.0,-999.0,83,-99.99,,,-99.99,0.000000,,2013-11-03 03:54:00,